EW0607 Weather Reports


time (UTC)temp
F
wind
direction
speed
knots
gust
knots
rain 1hr
in
rain 24hr
in
rain mn
in
humidity
%
barometer
mb
20260506034031 71 360 0.0 0.0 0.00 0.00 0.00 25 1003.7
20260506033506 71 360 0.9 0.0 0.00 0.00 0.00 25 1003.7
20260506033053 71 360 0.9 0.0 0.00 0.00 0.00 25 1003.4
20260506032538 71 360 0.0 0.0 0.00 0.00 0.00 24 1003.4
20260506032016 71 360 0.0 0.0 0.00 0.00 0.00 24 1003.2
20260506031501 71 360 0.0 0.0 0.00 0.00 0.00 23 1003.1
20260506031048 72 76 0.0 0.0 0.00 0.00 0.00 23 1003.1
20260506030532 72 77 0.0 0.0 0.00 0.00 0.00 23 1003.0
20260506030015 72 360 0.0 0.0 0.00 0.00 0.00 23 1002.9
20260506025557 72 360 0.0 0.0 0.00 0.00 0.00 22 1003.0
20260506025036 72 360 0.0 0.0 0.00 0.00 0.00 22 1002.9
20260506024515 72 193 0.0 0.0 0.00 0.00 0.00 22 1002.8
20260506024106 72 128 0.0 0.0 0.00 0.00 0.00 21 1002.7
20260506023546 73 360 0.0 0.0 0.00 0.00 0.00 21 1002.8
20260506023028 73 360 0.0 0.0 0.00 0.00 0.00 20 1002.5
20260506022510 73 360 0.0 0.0 0.00 0.00 0.00 20 1002.5
20260506022103 74 360 0.0 0.0 0.00 0.00 0.00 20 1002.4
20260506021544 74 360 0.9 0.0 0.00 0.00 0.00 20 1002.4
20260506021024 74 360 0.9 0.0 0.00 0.00 0.00 19 1002.3
20260506020503 74 360 0.9 0.0 0.00 0.00 0.00 19 1002.2
20260506020055 74 360 0.9 0.0 0.00 0.00 0.00 19 1002.2
20260506015532 75 360 0.9 0.0 0.00 0.00 0.00 19 1002.3
20260506015015 74 360 0.9 0.0 0.00 0.00 0.00 19 1002.3
20260506014502 75 360 0.9 0.0 0.00 0.00 0.00 18 1002.3
20260506014051 75 360 0.9 0.0 0.00 0.00 0.00 19 1002.2
20260506013529 75 360 0.9 0.0 0.00 0.00 0.00 19 1002.2
20260506013021 75 360 0.9 0.0 0.00 0.00 0.00 19 1002.2
20260506012554 75 360 0.9 0.0 0.00 0.00 0.00 19 1002.3
20260506012037 75 360 0.9 0.0 0.00 0.00 0.00 19 1002.2
20260506011523 75 360 0.9 0.0 0.00 0.00 0.00 19 1002.2
20260506011100 75 360 0.9 0.0 0.00 0.00 0.00 20 1002.2
20260506010539 75 360 0.9 0.0 0.00 0.00 0.00 19 1002.2
20260506010021 76 360 0.9 0.0 0.00 0.00 0.00 19 1002.0
20260506005604 76 360 0.9 0.0 0.00 0.00 0.00 18 1002.2
20260506005046 77 360 0.9 0.0 0.00 0.00 0.00 18 1002.2
20260506004523 76 360 0.9 0.0 0.00 0.00 0.00 19 1002.2
20260506004002 75 360 0.9 0.0 0.00 0.00 0.00 20 1002.3
20260506003545 75 360 0.9 0.0 0.00 0.00 0.00 19 1002.3
20260506003026 76 360 0.9 0.0 0.00 0.00 0.00 19 1002.3
20260506002501 74 360 1.7 0.0 0.00 0.00 0.00 20 1002.4
20260506002045 74 360 1.7 0.0 0.00 0.00 0.00 19 1002.2
20260506001524 74 360 1.7 0.0 0.00 0.00 0.00 19 1002.2
20260506001008 76 360 1.7 0.0 0.00 0.00 0.00 18 1002.2
20260506000556 75 360 1.7 0.0 0.00 0.00 0.00 20 1002.2
20260506000031 74 360 1.7 0.0 0.00 0.00 0.00 19 1002.3
20260505235511 74 360 1.7 0.0 0.00 0.00 0.00 19 1002.2
20260505235100 74 360 1.7 0.0 0.00 0.00 0.00 20 1002.2
20260505234539 74 360 1.7 0.0 0.00 0.00 0.00 19 1002.2
20260505234019 75 360 0.9 0.0 0.00 0.00 0.00 19 1002.2
20260505233600 76 360 1.7 0.0 0.00 0.00 0.00 19 1002.2
20260505233047 75 360 1.7 0.0 0.00 0.00 0.00 19 1002.3
20260505232525 76 360 0.9 0.0 0.00 0.00 0.00 18 1002.2
20260505232007 77 360 0.9 0.0 0.00 0.00 0.00 17 1002.1
20260505231554 77 360 0.9 0.0 0.00 0.00 0.00 18 1002.0
20260505231031 76 360 1.7 0.0 0.00 0.00 0.00 19 1002.1
20260505230514 76 360 2.6 0.0 0.00 0.00 0.00 18 1002.2
20260505230119 75 360 1.7 0.0 0.00 0.00 0.00 19 1002.5
20260505225533 74 360 1.7 0.0 0.00 0.00 0.00 19 1002.5
20260505225012 76 360 1.7 0.0 0.00 0.00 0.00 19 1002.6
20260505224558 75 360 2.6 0.0 0.00 0.00 0.00 20 1002.7
20260505224036 73 360 3.5 0.0 0.00 0.00 0.00 21 1002.8
20260505223515 72 360 4.3 0.0 0.00 0.00 0.00 21 1003.0
20260505223058 73 360 3.5 0.0 0.00 0.00 0.00 20 1002.9
20260505222540 73 360 1.7 0.0 0.00 0.00 0.00 20 1002.9
20260505222024 74 360 1.7 0.0 0.00 0.00 0.00 20 1003.0
20260505221503 73 360 1.7 0.0 0.00 0.00 0.00 20 1003.0
20260505221054 75 360 1.7 0.0 0.00 0.00 0.00 19 1003.0
20260505220534 77 360 0.9 0.0 0.00 0.00 0.00 18 1002.9
20260505220028 77 360 2.6 0.0 0.00 0.00 0.00 18 1002.9
20260505215554 77 360 3.5 0.0 0.00 0.00 0.00 19 1003.0
20260505215036 73 360 2.6 0.0 0.00 0.00 0.00 21 1003.1
20260505214520 74 360 1.7 0.0 0.00 0.00 0.00 20 1003.2
20260505214057 76 360 1.7 0.0 0.00 0.00 0.00 20 1003.2
20260505213536 76 360 0.9 0.0 0.00 0.00 0.00 19 1003.2
20260505213015 76 95 0.9 0.0 0.00 0.00 0.00 20 1003.2
20260505212600 75 267 1.7 0.0 0.00 0.00 0.00 20 1003.5
20260505212039 75 16 1.7 0.0 0.00 0.00 0.00 19 1003.4
20260505211520 76 170 1.7 0.0 0.00 0.00 0.00 20 1003.4
20260505211105 76 272 1.7 0.0 0.00 0.00 0.00 20 1003.5
20260505210542 76 111 1.7 0.0 0.00 0.00 0.00 21 1003.6
20260505210022 72 82 1.7 0.0 0.00 0.00 0.00 23 1003.9
20260505205504 73 43 1.7 0.0 0.00 0.00 0.00 21 1003.8
20260505205048 75 105 1.7 0.0 0.00 0.00 0.00 21 1003.7
20260505204526 76 205 0.9 0.0 0.00 0.00 0.00 20 1003.8
20260505204003 76 96 0.9 0.0 0.00 0.00 0.00 21 1003.7
20260505203549 75 91 1.7 0.0 0.00 0.00 0.00 22 1003.7
20260505203029 75 161 2.6 0.0 0.00 0.00 0.00 23 1003.7
20260505202506 73 262 3.5 0.0 0.00 0.00 0.00 24 1003.8
20260505202056 73 93 2.6 0.0 0.00 0.00 0.00 22 1003.9
20260505201533 75 115 1.7 0.0 0.00 0.00 0.00 22 1003.7
20260505201013 73 76 0.9 0.0 0.00 0.00 0.00 24 1004.0
20260505200559 74 96 1.7 0.0 0.00 0.00 0.00 24 1004.0
20260505200042 70 118 2.6 0.0 0.00 0.00 0.00 27 1004.3
20260505195522 70 121 3.5 0.0 0.00 0.00 0.00 26 1004.1
20260505195002 71 78 2.6 0.0 0.00 0.00 0.00 24 1004.2
20260505194548 73 115 2.6 0.0 0.00 0.00 0.00 24 1004.2
20260505194030 71 78 1.7 0.0 0.00 0.00 0.00 26 1004.4
20260505193510 73 92 0.9 0.0 0.00 0.00 0.00 24 1004.3
20260505193102 74 67 1.7 0.0 0.00 0.00 0.00 24 1004.1
20260505192536 70 316 1.7 0.0 0.00 0.00 0.00 27 1004.4
20260505192016 71 109 1.7 0.0 0.00 0.00 0.00 26 1004.4
20260505191502 72 196 1.7 0.0 0.00 0.00 0.00 26 1004.4
20260505191047 72 136 1.7 0.0 0.00 0.00 0.00 27 1004.4
20260505190523 71 92 2.6 0.0 0.00 0.00 0.00 27 1004.5
20260505190001 69 91 2.6 0.0 0.00 0.00 0.00 28 1004.4
20260505185543 69 37 2.6 0.0 0.00 0.00 0.00 28 1004.4
20260505185025 71 192 2.6 0.0 0.00 0.00 0.00 28 1004.4
20260505184503 71 93 2.6 0.0 0.00 0.00 0.00 27 1004.4
20260505184051 69 59 2.6 0.0 0.00 0.00 0.00 29 1004.4
20260505183533 69 78 1.7 0.0 0.00 0.00 0.00 29 1004.7
20260505183010 67 35 1.7 0.0 0.00 0.00 0.00 30 1004.7
20260505182552 69 90 1.7 0.0 0.00 0.00 0.00 29 1004.5
20260505182034 70 83 1.7 0.0 0.00 0.00 0.00 28 1004.5
20260505181517 71 154 1.7 0.0 0.00 0.00 0.00 27 1004.3
20260505181101 69 224 1.7 0.0 0.00 0.00 0.00 30 1004.7
20260505180547 68 38 2.6 0.0 0.00 0.00 0.00 31 1004.7
20260505180025 67 67 1.7 0.0 0.00 0.00 0.00 31 1004.7
20260505175508 70 115 0.9 0.0 0.00 0.00 0.00 29 1004.5
20260505175052 68 119 0.9 0.0 0.00 0.00 0.00 30 1004.6
20260505174527 69 273 0.9 0.0 0.00 0.00 0.00 30 1004.6
20260505174007 69 166 0.9 0.0 0.00 0.00 0.00 31 1004.6
20260505173550 69 259 1.7 0.0 0.00 0.00 0.00 31 1004.6
20260505173028 67 360 1.7 0.0 0.00 0.00 0.00 32 1004.8
20260505172505 67 360 2.6 0.0 0.00 0.00 0.00 32 1004.8
20260505172048 65 360 2.6 0.0 0.00 0.00 0.00 34 1005.0
20260505171526 65 360 2.6 0.0 0.00 0.00 0.00 34 1005.0
20260505171003 64 360 2.6 0.0 0.00 0.00 0.00 34 1005.1
20260505170543 65 360 2.6 0.0 0.00 0.00 0.00 34 1005.1
20260505170029 65 360 1.7 0.0 0.00 0.00 0.00 35 1005.0
20260505165605 65 360 1.7 0.0 0.00 0.00 0.00 35 1004.8
20260505165042 66 360 1.7 0.0 0.00 0.00 0.00 35 1004.9
20260505164519 65 360 1.7 0.0 0.00 0.00 0.00 36 1005.0
20260505164103 65 360 0.9 0.0 0.00 0.00 0.00 36 1005.0
20260505163537 64 360 0.9 0.0 0.00 0.00 0.00 39 1005.1
20260505163017 62 43 1.7 0.0 0.00 0.00 0.00 40 1005.1
20260505162556 63 360 2.6 0.0 0.00 0.00 0.00 39 1005.1
20260505162041 62 360 1.7 0.0 0.00 0.00 0.00 39 1005.1
20260505161535 62 76 1.7 0.0 0.00 0.00 0.00 40 1005.1
20260505161002 62 85 1.7 0.0 0.00 0.00 0.00 41 1005.4
20260505160546 62 360 1.7 0.0 0.00 0.00 0.00 40 1005.4
20260505153028 60 75 1.7 0.0 0.00 0.00 0.00 43 1005.0
20260505152509 60 102 1.7 0.0 0.00 0.00 0.00 43 1005.3
20260505152054 60 119 1.7 0.0 0.00 0.00 0.00 43 1005.1
20260505151533 60 72 1.7 0.0 0.00 0.00 0.00 43 1005.1
20260505151012 60 360 1.7 0.0 0.00 0.00 0.00 43 1005.1
20260505150553 60 87 1.7 0.0 0.00 0.00 0.00 43 1005.0
20260505140546 57 107 0.9 0.0 0.00 0.00 0.00 46 1004.8
20260505124520 54 360 0.9 0.0 0.00 0.00 0.00 48 1004.0
20260505124101 54 360 1.7 0.0 0.00 0.00 0.00 48 1003.9
20260505123545 55 360 1.7 0.0 0.00 0.00 0.00 48 1003.8
20260505123021 55 360 0.9 0.0 0.00 0.00 0.00 47 1003.9
20260505122500 55 96 1.7 0.0 0.00 0.00 0.00 47 1003.9
20260505122053 55 103 1.7 0.0 0.00 0.00 0.00 47 1003.8
20260505121541 55 76 1.7 0.0 0.00 0.00 0.00 47 1003.8
20260505121014 55 80 1.7 0.0 0.00 0.00 0.00 47 1004.0
20260505120556 55 93 1.7 0.0 0.00 0.00 0.00 47 1004.0
20260505120041 55 85 1.7 0.0 0.00 0.00 0.00 47 1003.9
20260505115517 55 78 1.7 0.0 0.00 0.00 0.00 47 1003.7
20260505115102 55 360 1.7 0.0 0.00 0.00 0.00 46 1003.7
20260505114544 56 360 1.7 0.0 0.00 0.00 0.00 46 1003.6
20260505114022 56 360 1.7 0.0 0.00 0.00 0.00 46 1003.6
20260505113502 56 360 1.7 0.0 0.00 0.00 0.00 46 1003.4
20260505113058 56 360 1.7 0.0 0.00 0.00 0.00 46 1003.5
20260505112530 56 360 1.7 0.0 0.00 0.00 0.00 45 1003.4
20260505112009 57 360 1.7 0.0 0.00 0.00 0.00 45 1003.5
20260505111555 57 360 1.7 0.0 0.00 0.00 0.00 45 1003.4
20260505111035 57 360 1.7 0.0 0.00 0.00 0.00 45 1003.3
20260505110516 56 360 1.7 0.0 0.00 0.00 0.00 45 1003.3
20260505110118 56 360 1.7 0.0 0.00 0.00 0.00 44 1003.3
20260505102021 57 106 0.9 0.0 0.00 0.00 0.00 43 1003.1
20260505101501 57 106 1.7 0.0 0.00 0.00 0.00 43 1003.1
20260505101044 57 98 1.7 0.0 0.00 0.00 0.00 43 1003.0
20260505100524 57 76 1.7 0.0 0.00 0.00 0.00 43 1003.0
20260505100006 57 113 0.9 0.0 0.00 0.00 0.00 43 1002.8
20260505095554 57 97 0.9 0.0 0.00 0.00 0.00 42 1002.7
20260505095035 57 91 0.9 0.0 0.00 0.00 0.00 43 1002.8
20260505094517 57 98 1.7 0.0 0.00 0.00 0.00 43 1002.8
20260505094059 57 360 1.7 0.0 0.00 0.00 0.00 42 1002.8
20260505093545 58 360 1.7 0.0 0.00 0.00 0.00 42 1002.8
20260505093017 58 360 1.7 0.0 0.00 0.00 0.00 42 1002.8
20260505092559 58 360 1.7 0.0 0.00 0.00 0.00 41 1002.7
20260505092044 58 360 1.7 0.0 0.00 0.00 0.00 41 1002.6
20260505091533 58 360 1.7 0.0 0.00 0.00 0.00 41 1002.7
20260505091009 58 360 1.7 0.0 0.00 0.00 0.00 41 1002.7
20260505090547 58 360 1.7 0.0 0.00 0.00 0.00 40 1002.7
20260505090040 58 360 1.7 0.0 0.00 0.00 0.00 40 1002.7
20260505085514 58 360 1.7 0.0 0.00 0.00 0.00 40 1003.0
20260505085059 58 73 1.7 0.0 0.00 0.00 0.00 39 1003.1
20260505084550 59 71 0.9 0.0 0.00 0.00 0.00 38 1002.9
20260505084014 59 71 0.9 0.0 0.00 0.00 0.00 38 1002.8
20260505083606 59 111 0.9 0.0 0.00 0.00 0.00 38 1002.6
20260505083056 59 94 0.9 0.0 0.00 0.00 0.00 38 1002.7
20260505082528 59 360 0.9 0.0 0.00 0.00 0.00 38 1002.7
20260505082012 59 360 0.9 0.0 0.00 0.00 0.00 37 1002.8
20260505081559 59 360 0.9 0.0 0.00 0.00 0.00 37 1002.8
20260505081030 60 360 0.9 0.0 0.00 0.00 0.00 36 1002.8
20260505080506 60 360 0.9 0.0 0.00 0.00 0.00 36 1002.8
20260505080054 60 360 0.9 0.0 0.00 0.00 0.00 36 1002.8
20260505075533 60 105 0.9 0.0 0.00 0.00 0.00 36 1002.9
20260505075012 60 107 0.9 0.0 0.00 0.00 0.00 36 1002.9
20260505074554 61 109 0.9 0.0 0.00 0.00 0.00 36 1002.9
20260505074036 61 98 0.9 0.0 0.00 0.00 0.00 35 1002.9
20260505073512 61 108 0.9 0.0 0.00 0.00 0.00 35 1002.9
20260505073103 62 360 0.0 0.0 0.00 0.00 0.00 35 1002.9
20260505072538 62 110 0.0 0.0 0.00 0.00 0.00 35 1002.9
20260505072014 62 115 0.9 0.0 0.00 0.00 0.00 35 1002.8
20260505071559 62 107 0.9 0.0 0.00 0.00 0.00 34 1002.6
20260505071038 62 107 0.0 0.0 0.00 0.00 0.00 34 1002.8
20260505070517 63 113 0.0 0.0 0.00 0.00 0.00 33 1002.7
20260505070059 63 74 0.0 0.0 0.00 0.00 0.00 33 1002.6
20260505065537 63 244 0.0 0.0 0.00 0.00 0.00 33 1002.6
20260505065019 63 272 0.0 0.0 0.00 0.00 0.00 33 1002.6
20260505064504 63 200 0.0 0.0 0.00 0.00 0.00 33 1002.5
20260505064047 63 240 0.0 0.0 0.00 0.00 0.00 32 1002.6
20260505063530 63 267 0.0 0.0 0.00 0.00 0.00 32 1002.6
20260505063015 64 267 0.0 0.0 0.00 0.00 0.00 32 1002.6
20260505062558 64 360 0.0 0.0 0.00 0.00 0.00 31 1002.6
20260505062040 64 111 0.0 0.0 0.00 0.00 0.00 31 1002.5
20260505061517 64 247 0.0 0.0 0.00 0.00 0.00 31 1002.4
20260505061059 65 291 0.0 0.0 0.00 0.00 0.00 30 1002.3
20260505060544 65 246 0.0 0.0 0.00 0.00 0.00 30 1002.3
20260505060034 65 249 0.0 0.0 0.00 0.00 0.00 30 1002.3
20260505055511 65 244 0.0 0.0 0.00 0.00 0.00 30 1002.3
20260505055100 65 252 0.0 0.0 0.00 0.00 0.00 29 1002.3
20260505054545 65 167 0.0 0.0 0.00 0.00 0.00 29 1002.3
20260505054017 65 241 0.0 0.0 0.00 0.00 0.00 29 1002.3
20260505053501 65 260 0.0 0.0 0.00 0.00 0.00 29 1002.3
20260505053048 65 210 0.0 0.0 0.00 0.00 0.00 29 1002.3
20260505052530 66 238 0.0 0.0 0.00 0.00 0.00 29 1002.2
20260505052015 66 146 0.0 0.0 0.00 0.00 0.00 29 1002.1
20260505051601 66 201 0.0 0.0 0.00 0.00 0.00 28 1002.2
20260505051045 66 181 0.0 0.0 0.00 0.00 0.00 28 1002.2
20260505050531 66 206 0.0 0.0 0.00 0.00 0.00 28 1002.2
20260505041601 68 150 0.0 0.0 0.00 0.00 0.00 25 1002.0
20260505041046 68 217 0.9 0.0 0.00 0.00 0.00 25 1001.9
20260505040528 68 299 0.9 0.0 0.00 0.00 0.00 24 1001.9
20260505040015 68 322 0.9 0.0 0.00 0.00 0.00 24 1001.8
20260505035554 69 216 0.9 0.0 0.00 0.00 0.00 24 1002.0
20260505035036 69 57 0.9 0.0 0.00 0.00 0.00 24 1001.8
20260505034515 69 360 0.9 0.0 0.00 0.00 0.00 23 1001.7